User: anonymous   Login
Location: York
(31.8935°S, 116.7682°E)
Time: 08:59:59
(UTC+08:00)
Language:

CAS-4A - Orbit

View from above orbital plane
View from above orbital plane
View from above satellite
View from above satellite

Ground track
Ground track

The orbit data is extracted from the following two-line orbital elements,

1 42761U 17034D   22334.48540696  .00002913  00000-0  17247-3 0  9990
2 42761  43.0160 135.3485 0011527 265.9551 142.7556 15.13433561301505
Epoch (UTC): 30 November 2022 11:38:59
Eccentricity: 0.0011527
inclination: 43.0160°
perigee height: 518 km
apogee height: 534 km
right ascension of ascending node: 135.3485°
argument of perigee: 265.9551°
revolutions per day: 15.13433561
mean anomaly at epoch: 142.7556°
orbit number at epoch: 30150

The dashed part of the orbit path shows where the satellite is in the earth's shadow,  

DLR